Temperature
21 22 22 22 22 22 20 19 19 20 19 19 19 19 19 20 20 20 20 20 20 20 20 20 20 19 19 19 19 19 18 18 18 18 18 18 18 18 17 17 17 17 17 16
21 22 22 22 23 22 22 21 20 20 19 19 19 19 19 19 19 19 19 19 19 19 20 19 19 19 19 19 19 18 18 18 18 18 17 17 17 17 17 17 16 16 16 16
19 20 21 21 21 22 21 21 20 20 19 18 18 18 18 18 18 18 18 18 18 18 18 19 19 19 18 18 18 18 18 17 17 17 17 17 17 16 16 16 16 16 16 15
17 19 20 20 20 21 21 20 19 19 18 18 17 17 18 18 18 17 17 17 17 17 17 18 18 18 18 17 17 17 17 17 17 17 17 17 16 16 16 16 16 15 15 15
16 17 19 20 20 20 19 19 19 18 18 17 17 16 15 16 17 16 16 16 16 16 16 17 17 17 17 16 16 16 16 16 16 16 16 16 16 16 15 15 15 15 15 14
16 17 18 19 19 20 19 17 18 18 17 17 17 15 14 15 15 15 15 15 15 15 16 16 15 16 16 16 15 15 15 15 15 15 15 15 15 15 14 14 14 14 14 14
16 16 17 18 18 19 18 17 18 18 17 17 16 15 14 14 15 15 15 15 15 15 15 15 15 15 15 15 14 14 14 14 14 14 14 14 14 13 13 13 13 13 13 13
15 16 16 17 17 17 17 17 17 17 17 16 15 14 14 14 14 14 14 14 14 14 14 13 14 14 14 13 13 13 13 13 13 13 13 13 13 13 13 13 12 12 12 12
14 15 15 15 16 17 17 17 17 17 16 16 15 14 14 14 13 13 13 13 13 13 13 13 13 13 13 12 12 13 13 13 12 12 12 12 12 12 12 12 12 11 11 11
14 14 14 15 16 17 17 17 17 17 16 16 14 14 13 13 13 13 13 13 13 13 12 12 12 12 12 12 12 12 12 12 12 12 12 12 12 12 11 11 11 11 11 10
14 14 14 15 15 16 16 16 16 16 15 15 14 14 13 13 13 13 12 12 12 12 12 11 11 11 11 11 11 12 11 11 11 11 11 11 11 11 11 11 10 10 10 10
14 14 14 14 15 16 16 15 15 15 14 14 14 14 13 13 13 12 12 12 12 12 11 11 11 11 11 11 11 11 11 11 11 11 11 11 11 10 10 10 10 10 9 9
15 15 15 15 15 15 15 15 14 15 14 14 14 13 13 12 12 12 12 12 12 11 11 11 11 11 11 11 11 11 10 10 10 10 10 10 10 10 10 9 9 9 9 8
15 15 14 14 14 14 14 14 14 14 13 13 13 13 13 12 12 12 12 12 11 11 11 11 11 11 10 10 10 10 10 10 10 10 10 9 9 9 9 9 8 8 8 7
15 15 14 14 14 14 14 14 13 13 13 13 13 13 12 12 12 12 12 11 11 11 11 11 11 10 10 10 10 10 10 9 9 9 9 9 9 8 8 8 7 7 6 6
14 14 14 13 13 13 13 13 13 12 12 12 12 12 12 12 12 11 11 11 11 11 11 10 10 10 10 10 9 9 9 9 9 8 8 8 8 7 7 6 6 6 5 5
13 13 13 13 13 12 12 12 12 12 12 12 12 12 12 12 11 11 11 11 11 10 10 10 10 10 9 9 9 9 9 8 8 8 7 7 7 6 6 5 5 4 4 3
14 13 13 13 12 12 12 12 12 12 12 12 12 11 11 11 11 11 11 11 10 10 10 10 9 9 9 9 8 8 8 7 7 7 6 6 5 5 4 4 4 3 3 3
13 13 13 13 13 12 12 12 12 12 12 12 12 11 11 11 11 11 11 10 10 10 9 9 9 9 8 8 8 7 7 7 6 6 5 5 4 4 4 3 3 2 2 2
13 13 13 12 12 12 12 12 12 12 12 11 11 11 11 11 11 10 10 10 10 9 9 8 8 8 8 7 7 7 6 6 5 5 4 4 3 3 3 2 2 2 1 1
12 12 12 12 12 12 12 12 12 11 11 11 11 11 11 10 10 10 10 10 9 9 8 8 8 7 7 7 6 6 5 5 4 4 3 3 3 2 2 2 1 1 1 1
12 12 12 12 12 12 12 12 12 11 11 11 11 11 10 10 10 10 9 9 9 8 8 7 7 7 6 6 5 5 4 4 4 3 3 2 2 2 2 1 1 1 1 0
12 12 12 12 12 11 11 11 11 11 11 11 11 10 10 10 10 9 9 8 8 7 7 7 6 6 5 5 5 4 4 3 3 3 2 2 2 1 1 1 1 0 0 0
11 11 11 11 11 11 11 11 11 11 10 10 10 10 10 9 9 8 8 8 7 7 6 6 5 5 5 4 4 3 3 3 2 2 2 1 1 1 1 1 0 0 -0 -0
11 11 11 11 11 11 10 10 10 10 10 10 9 9 9 9 8 8 7 7 7 6 6 5 5 4 4 4 3 3 3 2 2 2 1 1 1 1 0 0 0 -0 -0 -0
11 11 10 10 10 10 10 10 10 9 9 9 9 8 8 8 8 7 7 6 6 5 5 5 4 4 4 3 3 3 2 2 1 1 1 1 0 0 0 0 -0 -0 -0 -1
10 10 10 10 10 9 9 9 9 9 8 8 8 8 7 7 7 6 6 6 5 5 4 4 4 3 3 3 2 2 2 1 1 1 1 0 0 0 -0 -0 -0 -1 -1 -1
Wind_Speed
5 6 4 4 6 7 7 8 8 8 7 8 9 8 6 4 3 4 4 5 6 6 6 6 6 6 7 7 7 7 7 8 9 8 7 6 6 7 7 8 10 9 9 8
3 2 3 4 5 6 6 5 5 4 4 5 6 4 4 4 6 5 5 6 6 5 5 5 5 5 5 5 5 5 5 4 3 3 4 4 4 5 5 6 7 7 8 8
3 4 1 4 5 4 3 3 6 7 6 5 6 5 5 6 7 7 7 8 7 6 5 5 5 5 5 6 7 8 6 4 3 4 3 3 3 3 5 5 5 5 6 6
2 1 5 6 3 3 5 2 1 5 8 9 9 7 7 7 10 9 10 10 9 8 8 7 6 7 7 7 8 8 6 4 4 3 3 2 2 3 4 4 5 5 4 4
3 4 4 3 2 1 4 2 3 11 13 13 13 12 11 10 11 12 12 12 11 10 10 10 10 9 10 9 8 8 6 5 4 4 3 3 2 1 1 2 3 3 3 3
3 4 6 4 3 0 6 2 2 10 14 13 9 6 4 7 12 14 13 12 12 11 12 13 10 10 13 11 10 8 6 5 4 5 5 4 3 2 2 2 3 3 2 2
3 4 4 3 4 2 4 7 6 8 12 9 6 8 11 12 13 12 12 12 12 13 12 10 9 11 12 11 9 6 6 7 6 6 5 5 4 4 4 5 5 5 5 5
3 4 5 2 1 2 4 3 7 7 9 13 16 17 16 15 13 12 12 12 12 13 12 9 9 11 12 9 6 6 7 8 8 7 6 7 7 6 6 6 6 5 5 5
3 3 2 1 2 1 4 7 6 8 12 17 18 17 16 15 12 11 11 11 10 11 11 9 9 10 11 7 6 7 8 7 6 6 6 6 6 6 5 5 5 4 4 4
1 1 3 4 3 3 5 7 9 12 15 17 18 17 16 14 12 10 10 10 9 11 11 9 8 9 8 7 7 8 8 7 6 6 6 5 4 4 4 3 3 3 3 2
2 1 4 5 3 6 9 13 15 14 15 17 19 17 15 13 11 10 9 8 8 9 10 8 8 8 8 7 8 9 8 7 7 6 6 5 4 4 3 2 3 4 3 2
3 4 4 1 3 9 13 14 16 18 17 15 16 16 14 12 10 9 9 8 8 8 8 7 7 7 7 7 8 8 7 6 5 5 5 5 5 6 10 9 11 10 8 6
4 6 7 6 8 11 14 15 15 16 17 16 13 14 13 11 9 9 9 8 9 8 7 7 7 6 6 6 7 7 6 5 4 5 5 5 5 5 4 7 10 11 11 10
8 10 10 9 12 14 17 17 16 16 14 14 12 12 12 10 9 9 8 7 7 7 7 7 7 6 5 6 7 7 5 5 5 4 4 5 5 5 4 4 5 5 7 11
10 11 13 13 14 14 15 16 17 15 13 12 11 11 11 11 9 8 6 7 8 8 6 6 6 5 5 6 7 6 5 4 4 4 5 5 5 6 5 6 5 4 4 7
13 14 15 16 15 13 13 14 15 12 11 11 10 10 9 9 8 7 6 7 7 6 5 5 5 3 5 6 6 5 5 7 6 5 5 6 6 6 5 5 4 4 4 4
13 11 13 14 13 12 11 11 11 10 10 10 9 8 8 8 7 6 5 5 6 5 4 4 3 3 5 5 5 4 4 5 8 7 5 5 5 5 4 4 4 3 3 4
12 11 12 13 13 13 11 10 10 9 8 8 8 7 7 6 5 4 4 5 6 5 4 3 4 5 5 5 4 4 4 4 4 4 4 5 4 4 4 4 3 3 3 4
14 13 12 12 12 11 10 9 7 6 6 7 7 6 5 5 5 5 5 5 6 4 2 3 6 6 5 6 6 4 4 5 5 5 4 5 5 4 4 3 3 3 3 4
12 12 12 11 10 9 8 7 7 6 5 6 7 6 4 4 4 5 6 4 2 2 3 4 5 5 4 5 7 4 5 5 5 4 4 4 4 4 3 3 3 3 3 4
11 10 10 9 8 7 7 7 7 6 5 5 6 5 3 3 4 5 6 4 1 3 5 6 4 3 4 4 6 5 5 5 5 4 4 4 3 3 3 4 3 3 4 4
8 8 8 8 7 6 5 5 6 6 5 5 4 5 5 4 4 4 4 3 3 5 5 4 3 5 6 6 5 5 5 5 5 4 3 3 3 3 3 3 4 4 4 4
7 7 7 7 6 4 4 4 5 5 5 4 4 4 4 4 4 5 3 2 3 6 5 3 5 8 9 6 5 5 5 5 4 3 3 2 2 2 3 3 3 4 4 4
6 5 5 5 5 6 4 3 3 3 3 3 3 4 5 5 3 2 4 6 7 7 4 4 7 8 8 5 4 4 4 4 3 3 3 3 3 3 3 3 4 4 4 5
4 4 4 5 5 3 2 3 5 5 5 4 5 4 3 4 4 4 4 5 8 7 4 4 7 7 5 4 4 4 3 3 3 3 3 3 3 4 4 4 4 4 4 5
4 3 3 3 3 2 2 3 3 3 3 3 2 2 3 3 5 5 5 5 6 5 4 2 3 4 4 4 4 4 4 4 4 4 3 4 4 4 4 5 6 5 4 5
5 4 4 4 4 3 3 4 3 3 3 3 2 2 3 3 4 4 4 4 4 3 3 3 3 4 4 4 4 4 4 3 3 4 4 4 4 4 4 5 4 4 4 5
Wind_Direction
232 233 205 214 213 197 187 185 183 210 197 207 201 194 198 185 137 110 117 134 144 153 162 161 166 176 184 187 185 187 189 197 206 207 204 203 203 202 202 201 200 194 192 195
310 259 261 254 230 206 199 181 184 165 218 206 176 152 152 139 121 117 116 115 113 115 133 143 146 148 143 145 150 149 162 184 185 166 170 184 202 206 203 209 205 192 196 197
274 287 343 259 243 200 191 158 161 190 205 149 133 139 146 129 114 110 104 102 98 95 102 111 120 122 122 126 118 115 117 120 122 132 160 188 208 216 215 210 198 187 194 198
175 82 221 240 269 150 125 99 130 133 125 119 118 96 79 100 108 102 95 94 92 90 89 86 87 94 96 93 99 104 102 100 114 123 144 158 183 220 219 207 191 184 188 198
158 194 243 275 297 138 114 44 103 127 128 124 114 83 56 60 88 92 88 84 80 78 81 79 76 79 83 79 83 89 89 83 87 104 111 115 119 133 193 180 169 167 171 193
156 186 211 240 299 350 107 109 208 140 143 144 127 109 107 87 89 87 84 82 81 78 77 76 73 81 82 76 75 74 75 79 74 82 89 89 90 99 88 105 123 118 115 108
171 206 238 265 310 32 158 197 188 158 147 139 122 132 125 104 92 90 88 85 84 81 77 72 72 82 81 75 71 69 70 67 62 67 74 74 67 58 63 70 74 80 79 72
161 192 235 298 53 159 192 159 143 133 126 113 111 113 112 106 101 98 93 87 84 84 76 65 65 78 78 67 58 60 65 64 58 55 62 72 74 61 64 76 75 74 75 62
186 214 284 9 117 160 136 130 127 130 125 122 120 118 114 109 106 101 98 94 88 88 82 67 59 71 75 60 54 58 57 55 55 57 56 61 73 75 69 72 80 76 74 70
121 359 36 34 45 67 106 116 123 126 125 123 120 117 113 111 109 104 100 98 94 91 85 74 64 65 67 57 56 60 55 46 44 52 51 51 60 74 81 84 91 85 80 75
106 88 50 32 61 95 98 105 107 111 117 121 120 118 116 114 113 111 105 98 95 95 92 84 73 65 61 62 63 59 51 44 42 45 49 45 41 45 59 64 107 111 96 92
174 182 138 130 90 110 107 109 116 115 109 109 115 118 116 115 114 112 107 102 97 95 93 85 77 67 56 56 64 62 50 41 39 38 40 45 51 50 49 61 68 76 81 84
134 122 111 102 90 99 106 109 110 111 114 113 110 114 113 112 111 108 105 102 103 104 100 93 82 67 51 50 55 55 51 41 36 37 41 42 52 68 60 40 55 62 60 54
113 109 97 95 99 100 103 104 102 99 100 105 108 109 109 106 103 103 105 108 105 101 95 89 80 63 48 55 53 46 39 32 36 38 45 55 61 63 69 67 45 28 31 34
82 101 112 107 99 98 103 106 104 102 101 99 101 104 107 107 107 107 107 105 98 94 91 86 77 54 44 56 51 38 27 22 37 47 57 59 57 60 63 64 60 42 22 15
99 97 103 103 102 102 102 105 106 105 105 103 102 105 109 109 107 103 103 107 106 107 107 97 87 66 53 55 47 32 23 38 56 66 60 58 57 60 62 61 54 43 30 9
108 105 108 107 104 101 101 104 108 110 109 110 112 111 107 103 98 94 94 102 112 117 113 105 98 70 55 53 51 39 37 51 65 70 68 66 64 62 62 62 51 36 12 1
102 108 113 115 115 110 106 104 107 109 113 117 116 110 109 111 118 120 115 104 89 74 62 78 88 72 52 42 44 49 67 65 70 75 73 68 68 66 64 56 39 25 357 350
100 104 105 107 111 112 112 112 111 109 112 118 119 122 123 126 130 128 116 106 104 97 61 72 86 74 51 30 44 56 72 75 74 70 70 67 63 55 50 40 26 12 359 350
98 100 103 104 107 111 116 118 115 110 112 118 115 109 107 113 122 115 103 98 117 141 126 91 75 59 39 28 49 66 77 79 79 72 65 61 56 43 33 25 17 4 352 342
100 101 101 104 105 106 112 118 118 118 117 119 122 126 127 123 129 129 121 111 75 106 101 89 75 58 42 46 60 75 77 76 72 68 65 60 51 37 23 9 357 345 338 334
92 93 94 96 100 101 107 112 118 119 113 113 120 123 118 114 111 106 111 138 145 120 104 84 74 67 65 65 71 80 79 76 72 68 62 54 45 25 4 350 342 339 341 342
90 90 89 91 98 101 90 95 109 122 126 135 143 143 140 143 140 133 135 147 124 113 106 101 97 83 77 75 81 84 82 77 69 65 57 44 32 11 352 347 348 350 353 357
83 84 83 80 81 79 75 72 86 96 102 101 107 123 125 113 92 95 128 132 131 119 111 113 99 89 84 82 85 83 78 74 67 58 45 33 20 6 1 6 10 8 9 9
100 91 85 86 84 88 106 92 83 77 77 80 82 86 101 121 132 138 128 131 136 129 126 124 107 98 91 93 94 88 78 76 73 61 47 34 20 18 20 24 25 22 15 11
103 97 93 95 114 120 99 91 89 90 95 90 81 80 88 103 121 126 131 142 143 135 130 120 112 105 102 102 98 91 83 68 58 55 47 34 28 32 33 33 32 27 19 10
70 71 72 58 45 62 78 89 100 103 112 116 109 111 119 120 124 133 134 135 135 130 121 120 121 117 111 105 97 89 79 67 56 55 48 43 42 42 38 38 30 18 13 8
Height
1460 1456 1457 1458 1459 1460 1466 1472 1480 1476 1474 1471 1468 1468 1469 1468 1469 1470 1473 1475 1476 1478 1480 1482 1484 1486 1489 1491 1495 1498 1500 1503 1505 1508 1510 1513 1515 1517 1518 1520 1521 1523 1524 1525
1460 1453 1455 1456 1453 1454 1457 1460 1466 1468 1469 1463 1464 1466 1468 1468 1469 1471 1473 1474 1476 1478 1480 1482 1484 1486 1488 1490 1493 1496 1498 1500 1502 1505 1507 1509 1510 1513 1514 1515 1517 1518 1519 1520
1471 1460 1457 1464 1455 1453 1455 1454 1460 1466 1464 1461 1464 1466 1467 1467 1469 1471 1472 1474 1476 1477 1479 1481 1483 1485 1487 1489 1491 1493 1495 1497 1499 1502 1503 1505 1506 1508 1509 1510 1511 1512 1514 1515
1473 1470 1478 1461 1448 1446 1450 1454 1454 1456 1459 1461 1465 1468 1469 1470 1470 1472 1473 1474 1477 1478 1479 1481 1483 1485 1487 1489 1490 1492 1493 1494 1496 1497 1499 1501 1502 1503 1504 1505 1506 1507 1509 1511
1475 1476 1469 1456 1450 1449 1454 1459 1454 1455 1460 1464 1467 1469 1474 1475 1474 1475 1476 1477 1478 1480 1481 1482 1484 1486 1488 1489 1490 1492 1493 1494 1495 1495 1497 1498 1499 1499 1499 1500 1501 1502 1504 1507
1470 1473 1473 1459 1448 1447 1453 1465 1457 1455 1458 1462 1464 1473 1480 1479 1478 1478 1479 1480 1481 1482 1483 1484 1486 1487 1488 1489 1491 1492 1493 1494 1494 1495 1496 1497 1497 1497 1497 1497 1497 1499 1501 1503
1467 1469 1462 1450 1447 1448 1464 1463 1456 1456 1457 1460 1463 1469 1477 1479 1481 1482 1483 1484 1484 1485 1485 1487 1488 1489 1490 1491 1492 1494 1494 1495 1495 1495 1496 1496 1497 1496 1496 1496 1496 1498 1499 1500
1465 1469 1465 1448 1448 1452 1454 1452 1453 1457 1459 1461 1465 1471 1476 1479 1484 1486 1486 1486 1487 1487 1488 1491 1492 1491 1491 1493 1495 1496 1496 1496 1496 1496 1496 1496 1496 1496 1496 1496 1497 1498 1498 1499
1460 1461 1453 1447 1448 1449 1449 1451 1454 1458 1460 1463 1468 1473 1478 1482 1486 1488 1489 1490 1491 1491 1492 1494 1495 1495 1494 1496 1498 1498 1498 1497 1498 1497 1497 1497 1497 1497 1497 1498 1498 1498 1498 1497
1457 1454 1451 1449 1449 1450 1451 1452 1455 1459 1462 1466 1470 1475 1480 1484 1488 1491 1493 1493 1494 1495 1495 1497 1499 1499 1499 1500 1500 1500 1500 1500 1499 1499 1498 1498 1498 1498 1497 1497 1497 1497 1497 1496
1455 1454 1451 1452 1452 1453 1455 1456 1459 1463 1466 1469 1472 1478 1482 1486 1490 1493 1495 1496 1497 1498 1499 1501 1502 1502 1503 1503 1503 1502 1502 1502 1501 1501 1500 1499 1499 1498 1498 1497 1497 1496 1495 1495
1454 1452 1453 1456 1455 1456 1457 1460 1463 1466 1470 1474 1476 1481 1485 1489 1493 1495 1498 1500 1501 1502 1503 1504 1505 1505 1506 1506 1505 1504 1503 1503 1502 1502 1501 1500 1499 1498 1497 1497 1495 1494 1494 1493
1450 1452 1454 1457 1458 1459 1461 1465 1468 1470 1473 1478 1482 1486 1489 1492 1496 1498 1501 1502 1504 1505 1506 1507 1508 1508 1508 1507 1506 1505 1505 1504 1503 1502 1500 1499 1498 1497 1497 1496 1495 1494 1493 1491
1452 1454 1458 1460 1462 1464 1466 1470 1473 1476 1480 1483 1486 1490 1493 1496 1498 1501 1503 1505 1506 1507 1508 1509 1510 1509 1509 1508 1507 1506 1505 1504 1503 1501 1500 1499 1498 1497 1496 1495 1493 1492 1491 1489
1457 1458 1461 1464 1467 1469 1472 1475 1478 1481 1485 1488 1491 1494 1496 1499 1501 1503 1505 1507 1508 1509 1510 1511 1511 1511 1510 1509 1508 1507 1505 1504 1503 1501 1500 1499 1498 1496 1495 1493 1492 1490 1489 1487
1462 1464 1466 1469 1472 1475 1478 1480 1482 1486 1489 1492 1495 1498 1500 1502 1504 1506 1508 1509 1510 1511 1511 1511 1511 1511 1510 1509 1508 1506 1505 1503 1502 1501 1500 1498 1497 1496 1494 1492 1490 1489 1486 1484
1465 1469 1472 1474 1477 1480 1483 1485 1487 1490 1493 1496 1498 1501 1503 1505 1506 1508 1509 1510 1511 1512 1512 1511 1511 1510 1509 1508 1507 1505 1504 1503 1501 1500 1499 1497 1496 1494 1492 1491 1489 1487 1485 1482
1470 1473 1475 1477 1480 1484 1487 1490 1492 1495 1497 1499 1502 1504 1505 1507 1508 1509 1510 1511 1512 1512 1511 1511 1510 1510 1509 1507 1506 1504 1503 1501 1500 1499 1497 1496 1494 1492 1491 1489 1487 1485 1483 1481
1477 1479 1481 1484 1486 1489 1491 1494 1497 1499 1501 1502 1504 1506 1507 1508 1509 1510 1511 1511 1511 1511 1511 1510 1510 1509 1507 1506 1504 1502 1501 1500 1498 1497 1495 1494 1492 1491 1489 1487 1485 1483 1481 1479
1482 1484 1486 1489 1491 1493 1495 1498 1500 1501 1503 1504 1506 1507 1508 1509 1510 1510 1510 1511 1511 1510 1510 1509 1509 1507 1506 1504 1502 1501 1499 1498 1497 1495 1494 1492 1491 1489 1488 1486 1484 1482 1480 1477
1487 1489 1491 1493 1495 1497 1499 1500 1502 1503 1504 1505 1506 1507 1508 1509 1509 1509 1509 1510 1510 1509 1509 1508 1507 1506 1504 1503 1501 1500 1498 1497 1496 1494 1493 1491 1490 1488 1487 1485 1483 1481 1478 1476
1491 1493 1495 1497 1499 1500 1502 1503 1504 1505 1505 1506 1507 1507 1508 1508 1508 1508 1508 1509 1508 1508 1507 1506 1505 1504 1503 1501 1500 1499 1498 1496 1495 1493 1492 1491 1489 1487 1486 1484 1482 1480 1477 1474
1495 1496 1498 1499 1501 1502 1503 1504 1505 1505 1506 1506 1506 1506 1507 1507 1507 1507 1507 1507 1507 1506 1506 1505 1504 1503 1502 1501 1500 1499 1497 1496 1495 1493 1492 1490 1488 1487 1485 1483 1481 1479 1476 1473
1497 1498 1500 1501 1502 1503 1503 1504 1504 1505 1505 1505 1505 1505 1505 1505 1505 1505 1505 1505 1505 1505 1504 1503 1503 1502 1501 1500 1499 1498 1497 1496 1494 1493 1492 1490 1489 1487 1485 1483 1481 1478 1475 1472
1498 1500 1501 1502 1503 1503 1503 1504 1504 1504 1504 1504 1504 1504 1504 1504 1504 1504 1504 1504 1504 1503 1503 1502 1502 1501 1501 1500 1499 1498 1497 1496 1494 1493 1492 1490 1488 1487 1485 1482 1480 1477 1474 1471
1499 1500 1501 1502 1503 1503 1503 1503 1503 1503 1503 1503 1503 1503 1503 1503 1503 1502 1502 1502 1502 1502 1502 1502 1501 1501 1500 1500 1499 1498 1497 1496 1495 1493 1492 1490 1488 1486 1484 1482 1479 1477 1474 1470
1500 1500 1501 1502 1502 1502 1502 1502 1502 1502 1502 1502 1502 1501 1501 1501 1501 1501 1501 1500 1500 1501 1501 1501 1501 1500 1500 1500 1499 1498 1497 1496 1495 1493 1492 1490 1488 1486 1484 1481 1479 1476 1473 1470